Time,TemperatureF,DewpointF,PressureIn,WindDirection,WindDirectionDegrees,WindSpeedMPH,WindSpeedGustMPH,Humidity,HourlyPrecipIn,Conditions,Clouds,dailyrainin,SoftwareType,DateUTC
2013-05-13 00:00:00,51.4,35.8,30.06,NW,318,0.0,0.0,55,0.00,,,0.00,meteohub,2013-05-13 04:00:00,
2013-05-13 00:01:00,51.4,35.4,30.06,NW,317,0.0,0.0,54,0.00,,,0.00,meteohub,2013-05-13 04:01:00,
2013-05-13 00:06:00,51.4,35.8,30.06,NW,318,0.0,1.0,55,0.00,,,0.00,meteohub,2013-05-13 04:06:00,
2013-05-13 00:11:00,51.6,36.0,30.06,NW,317,1.0,1.0,55,0.00,,,0.00,meteohub,2013-05-13 04:11:00,
2013-05-13 00:16:00,51.6,36.5,30.07,West,270,1.0,1.0,56,0.00,,,0.00,meteohub,2013-05-13 04:16:00,
2013-05-13 00:21:00,51.6,36.0,30.06,WSW,255,0.0,1.0,55,0.00,,,0.00,meteohub,2013-05-13 04:21:00,
2013-05-13 00:26:00,51.6,36.5,30.06,West,275,0.0,1.0,56,0.00,,,0.00,meteohub,2013-05-13 04:26:00,
2013-05-13 00:31:00,51.4,36.3,30.06,WNW,300,1.0,1.0,56,0.00,,,0.00,meteohub,2013-05-13 04:31:00,
2013-05-13 00:36:00,51.3,35.6,30.06,NW,314,0.0,1.0,55,0.00,,,0.00,meteohub,2013-05-13 04:36:00,
2013-05-13 00:41:00,51.3,35.6,30.06,NW,314,0.0,1.0,55,0.00,,,0.00,meteohub,2013-05-13 04:41:00,
2013-05-13 00:46:00,51.3,36.1,30.06,NW,314,0.0,1.0,56,0.00,,,0.00,meteohub,2013-05-13 04:46:00,
2013-05-13 00:51:00,51.1,35.4,30.07,NW,325,0.0,1.0,55,0.00,,,0.00,meteohub,2013-05-13 04:51:00,
2013-05-13 00:56:00,51.1,36.0,30.06,NW,324,0.0,1.0,56,0.00,,,0.00,meteohub,2013-05-13 04:56:00,
2013-05-13 01:01:00,50.9,36.1,30.06,NW,324,0.0,1.0,57,0.00,,,0.00,meteohub,2013-05-13 05:01:00,
2013-05-13 01:06:00,50.9,35.8,30.06,NW,319,1.0,1.0,56,0.00,,,0.00,meteohub,2013-05-13 05:06:00,
2013-05-13 01:11:00,50.9,35.2,30.06,NNW,335,0.0,1.0,55,0.00,,,0.00,meteohub,2013-05-13 05:11:00,
2013-05-13 01:16:00,50.9,35.2,30.06,NNW,335,0.0,2.0,55,0.00,,,0.00,meteohub,2013-05-13 05:16:00,
2013-05-13 01:21:00,50.9,35.8,30.06,North,359,0.0,2.0,56,0.00,,,0.00,meteohub,2013-05-13 05:21:00,
2013-05-13 01:26:00,50.7,35.6,30.06,North,359,0.0,1.0,56,0.00,,,0.00,meteohub,2013-05-13 05:26:00,
2013-05-13 01:31:00,50.5,35.4,30.06,North,359,0.0,1.0,56,0.00,,,0.00,meteohub,2013-05-13 05:31:00,
2013-05-13 01:36:00,50.5,36.0,30.06,North,358,0.0,1.0,57,0.00,,,0.00,meteohub,2013-05-13 05:36:00,
2013-05-13 01:41:00,50.4,35.8,30.06,North,355,1.0,0.0,57,0.00,,,0.00,meteohub,2013-05-13 05:41:00,
2013-05-13 01:47:00,50.2,36.0,30.06,North,356,0.0,1.0,58,0.00,,,0.00,meteohub,2013-05-13 05:47:00,
2013-05-13 01:52:00,50.2,36.3,30.06,North,356,0.0,1.0,59,0.00,,,0.00,meteohub,2013-05-13 05:52:00,
2013-05-13 01:57:00,49.8,36.1,30.06,North,356,0.0,1.0,59,0.00,,,0.00,meteohub,2013-05-13 05:57:00,
2013-05-13 02:02:00,49.6,36.3,30.06,North,356,0.0,1.0,60,0.00,,,0.00,meteohub,2013-05-13 06:02:00,
2013-05-13 02:07:00,49.5,35.8,30.05,North,356,0.0,1.0,59,0.00,,,0.00,meteohub,2013-05-13 06:07:00,
2013-05-13 02:12:00,49.5,36.1,30.05,North,355,0.0,1.0,60,0.00,,,0.00,meteohub,2013-05-13 06:12:00,
2013-05-13 02:17:00,49.3,35.1,30.05,NNW,347,0.0,1.0,58,0.00,,,0.00,meteohub,2013-05-13 06:17:00,
2013-05-13 02:22:00,49.3,36.0,30.06,NNW,347,0.0,1.0,60,0.00,,,0.00,meteohub,2013-05-13 06:22:00,
2013-05-13 02:27:00,49.3,36.0,30.06,NNW,347,0.0,1.0,60,0.00,,,0.00,meteohub,2013-05-13 06:27:00,
2013-05-13 02:32:00,49.3,36.0,30.06,NNW,347,0.0,1.0,60,0.00,,,0.00,meteohub,2013-05-13 06:32:00,
2013-05-13 02:37:00,49.1,35.8,30.06,NNW,347,0.0,1.0,60,0.00,,,0.00,meteohub,2013-05-13 06:37:00,
2013-05-13 02:42:00,48.9,35.6,30.06,NNW,347,0.0,1.0,60,0.00,,,0.00,meteohub,2013-05-13 06:42:00,
2013-05-13 02:47:00,48.7,36.7,30.06,NNW,347,0.0,0.0,63,0.00,,,0.00,meteohub,2013-05-13 06:47:00,
2013-05-13 02:52:00,48.6,36.5,30.06,NNW,347,0.0,1.0,63,0.00,,,0.00,meteohub,2013-05-13 06:52:00,
2013-05-13 02:57:00,48.4,36.3,30.06,NNW,347,0.0,1.0,63,0.00,,,0.00,meteohub,2013-05-13 06:57:00,
2013-05-13 03:02:00,48.0,35.6,30.06,NNW,346,1.0,1.0,62,0.00,,,0.00,meteohub,2013-05-13 07:02:00,
2013-05-13 03:07:00,48.0,36.0,30.06,NNW,346,0.0,1.0,63,0.00,,,0.00,meteohub,2013-05-13 07:07:00,
2013-05-13 03:12:00,48.0,36.5,30.06,NNW,345,0.0,1.0,64,0.00,,,0.00,meteohub,2013-05-13 07:12:00,
2013-05-13 03:17:00,48.0,36.5,30.07,NNW,345,0.0,1.0,64,0.00,,,0.00,meteohub,2013-05-13 07:17:00,
2013-05-13 03:22:00,47.8,35.8,30.07,NNW,346,0.0,1.0,63,0.00,,,0.00,meteohub,2013-05-13 07:22:00,
2013-05-13 03:27:00,47.8,36.7,30.07,NNW,346,0.0,1.0,65,0.00,,,0.00,meteohub,2013-05-13 07:27:00,
2013-05-13 03:32:00,47.7,36.1,30.07,NNW,346,0.0,1.0,64,0.00,,,0.00,meteohub,2013-05-13 07:32:00,
2013-05-13 03:37:00,47.5,36.0,30.07,NNW,347,0.0,1.0,64,0.00,,,0.00,meteohub,2013-05-13 07:37:00,
2013-05-13 03:42:00,47.3,36.1,30.07,NNW,347,0.0,1.0,65,0.00,,,0.00,meteohub,2013-05-13 07:42:00,
2013-05-13 03:47:00,47.3,35.8,30.07,NNW,347,0.0,1.0,64,0.00,,,0.00,meteohub,2013-05-13 07:47:00,
2013-05-13 03:52:00,47.5,35.6,30.07,NNW,347,0.0,1.0,63,0.00,,,0.00,meteohub,2013-05-13 07:52:00,
2013-05-13 03:57:00,47.7,35.6,30.07,NNW,347,0.0,1.0,63,0.00,,,0.00,meteohub,2013-05-13 07:57:00,
2013-05-13 04:02:00,47.8,36.3,30.07,NNW,347,0.0,1.0,64,0.00,,,0.00,meteohub,2013-05-13 08:02:00,
2013-05-13 04:07:00,47.8,35.4,30.07,NNW,347,0.0,0.0,62,0.00,,,0.00,meteohub,2013-05-13 08:07:00,
2013-05-13 04:12:00,47.8,36.3,30.08,NNW,347,0.0,0.0,64,0.00,,,0.00,meteohub,2013-05-13 08:12:00,
2013-05-13 04:17:00,47.7,35.6,30.08,NNW,347,0.0,0.0,63,0.00,,,0.00,meteohub,2013-05-13 08:17:00,
2013-05-13 04:22:00,47.7,35.6,30.08,NNW,347,0.0,0.0,63,0.00,,,0.00,meteohub,2013-05-13 08:22:00,
2013-05-13 04:27:00,47.5,36.7,30.08,NNW,347,0.0,0.0,66,0.00,,,0.00,meteohub,2013-05-13 08:27:00,
2013-05-13 04:32:00,47.1,35.6,30.08,NNW,347,0.0,0.0,64,0.00,,,0.00,meteohub,2013-05-13 08:32:00,
2013-05-13 04:37:00,46.8,36.0,30.09,NNW,347,0.0,0.0,66,0.00,,,0.00,meteohub,2013-05-13 08:37:00,
2013-05-13 04:42:00,46.6,36.5,30.09,NNW,347,0.0,0.0,68,0.00,,,0.00,meteohub,2013-05-13 08:42:00,
2013-05-13 04:47:00,46.2,36.7,30.09,NNW,347,0.0,0.0,69,0.00,,,0.00,meteohub,2013-05-13 08:47:00,
2013-05-13 04:52:00,45.9,36.3,30.09,NNW,347,0.0,0.0,69,0.00,,,0.00,meteohub,2013-05-13 08:52:00,
2013-05-13 04:57:00,45.7,35.8,30.09,NNW,347,0.0,0.0,68,0.00,,,0.00,meteohub,2013-05-13 08:57:00,
2013-05-13 05:02:00,45.7,35.8,30.09,NNW,347,0.0,0.0,68,0.00,,,0.00,meteohub,2013-05-13 09:02:00,
2013-05-13 05:07:00,45.7,35.8,30.09,NNW,347,0.0,0.0,68,0.00,,,0.00,meteohub,2013-05-13 09:07:00,
2013-05-13 05:12:00,45.7,35.8,30.10,NNW,347,0.0,0.0,68,0.00,,,0.00,meteohub,2013-05-13 09:12:00,
2013-05-13 05:17:00,45.5,36.0,30.10,NNW,347,0.0,0.0,69,0.00,,,0.00,meteohub,2013-05-13 09:17:00,
2013-05-13 05:22:00,45.5,36.0,30.10,NNW,347,0.0,1.0,69,0.00,,,0.00,meteohub,2013-05-13 09:22:00,
2013-05-13 05:27:00,45.3,36.1,30.10,NNW,347,0.0,1.0,70,0.00,,,0.00,meteohub,2013-05-13 09:27:00,
2013-05-13 05:32:00,45.1,36.0,30.10,NNW,347,0.0,1.0,70,0.00,,,0.00,meteohub,2013-05-13 09:32:00,
2013-05-13 05:37:00,44.8,35.6,30.10,NNW,347,0.0,1.0,70,0.00,,,0.00,meteohub,2013-05-13 09:37:00,
2013-05-13 05:42:00,44.6,36.5,30.10,NNW,347,0.0,1.0,73,0.00,,,0.00,meteohub,2013-05-13 09:42:00,
2013-05-13 05:47:00,44.4,36.0,30.10,NNW,347,0.0,1.0,72,0.00,,,0.00,meteohub,2013-05-13 09:47:00,
2013-05-13 05:52:00,44.4,36.3,30.10,NNW,347,0.0,1.0,73,0.00,,,0.00,meteohub,2013-05-13 09:52:00,
2013-05-13 05:57:00,44.2,35.8,30.11,NNW,347,0.0,1.0,72,0.00,,,0.00,meteohub,2013-05-13 09:57:00,
2013-05-13 06:02:00,44.1,35.6,30.11,NNW,347,0.0,0.0,72,0.00,,,0.00,meteohub,2013-05-13 10:02:00,
2013-05-13 06:07:00,43.9,35.4,30.11,NNW,347,0.0,0.0,72,0.00,,,0.00,meteohub,2013-05-13 10:07:00,
2013-05-13 06:12:00,43.9,35.8,30.11,NNW,347,0.0,0.0,73,0.00,,,0.00,meteohub,2013-05-13 10:12:00,
2013-05-13 06:17:00,43.5,35.8,30.11,NNW,347,0.0,0.0,74,0.00,,,0.00,meteohub,2013-05-13 10:17:00,
2013-05-13 06:22:00,43.3,36.0,30.12,NNW,347,0.0,0.0,75,0.00,,,0.00,meteohub,2013-05-13 10:22:00,
2013-05-13 06:27:00,43.2,36.1,30.12,NNW,347,0.0,0.0,76,0.00,,,0.00,meteohub,2013-05-13 10:27:00,
2013-05-13 06:32:00,43.2,36.5,30.12,NNW,347,0.0,0.0,77,0.00,,,0.00,meteohub,2013-05-13 10:32:00,
2013-05-13 06:37:00,42.8,36.1,30.12,NNW,347,0.0,0.0,77,0.00,,,0.00,meteohub,2013-05-13 10:37:00,
2013-05-13 06:42:00,42.6,36.3,30.12,NNW,347,0.0,0.0,78,0.00,,,0.00,meteohub,2013-05-13 10:42:00,
2013-05-13 06:47:00,42.4,36.7,30.12,NNW,347,0.0,0.0,80,0.00,,,0.00,meteohub,2013-05-13 10:47:00,
2013-05-13 06:52:00,42.3,36.9,30.13,NNW,347,0.0,1.0,81,0.00,,,0.00,meteohub,2013-05-13 10:52:00,
2013-05-13 06:57:00,42.1,36.7,30.13,NNW,347,0.0,1.0,81,0.00,,,0.00,meteohub,2013-05-13 10:57:00,
2013-05-13 07:02:00,41.9,36.9,30.14,NNW,347,0.0,1.0,82,0.00,,,0.00,meteohub,2013-05-13 11:02:00,
2013-05-13 07:07:00,41.7,36.7,30.14,NNW,347,0.0,0.0,82,0.00,,,0.00,meteohub,2013-05-13 11:07:00,
2013-05-13 07:12:00,41.9,37.0,30.14,NNW,347,0.0,0.0,83,0.00,,,0.00,meteohub,2013-05-13 11:12:00,
2013-05-13 07:17:00,41.9,37.0,30.15,NNW,347,0.0,1.0,83,0.00,,,0.00,meteohub,2013-05-13 11:17:00,
2013-05-13 07:22:00,41.9,37.4,30.15,NNW,347,0.0,1.0,84,0.00,,,0.00,meteohub,2013-05-13 11:22:00,
2013-05-13 07:27:00,42.1,37.6,30.15,NNW,347,0.0,1.0,84,0.00,,,0.00,meteohub,2013-05-13 11:27:00,
2013-05-13 07:32:00,42.1,37.6,30.15,NNW,347,0.0,0.0,84,0.00,,,0.00,meteohub,2013-05-13 11:32:00,
2013-05-13 07:37:00,42.1,37.9,30.15,NNW,347,0.0,0.0,85,0.00,,,0.00,meteohub,2013-05-13 11:37:00,
2013-05-13 07:42:00,42.1,37.9,30.15,NNW,347,0.0,0.0,85,0.00,,,0.00,meteohub,2013-05-13 11:42:00,
2013-05-13 07:47:00,42.1,37.9,30.15,NNW,347,0.0,0.0,85,0.00,,,0.00,meteohub,2013-05-13 11:47:00,
2013-05-13 07:52:00,42.3,38.1,30.15,NNW,347,0.0,0.0,85,0.00,,,0.00,meteohub,2013-05-13 11:52:00,
2013-05-13 07:57:00,42.4,38.3,30.15,NNW,347,0.0,0.0,85,0.00,,,0.00,meteohub,2013-05-13 11:57:00,
2013-05-13 08:02:00,42.6,38.7,30.16,NNW,347,0.0,0.0,86,0.00,,,0.00,meteohub,2013-05-13 12:02:00,
2013-05-13 08:07:00,43.0,38.8,30.16,NNW,347,0.0,0.0,85,0.00,,,0.00,meteohub,2013-05-13 12:07:00,
2013-05-13 08:12:00,43.3,39.2,30.16,NNW,347,0.0,0.0,85,0.00,,,0.00,meteohub,2013-05-13 12:12:00,
2013-05-13 08:17:00,43.5,39.4,30.16,NNW,347,0.0,0.0,85,0.00,,,0.00,meteohub,2013-05-13 12:17:00,
2013-05-13 08:22:00,44.1,39.9,30.17,NNW,347,0.0,0.0,85,0.00,,,0.00,meteohub,2013-05-13 12:22:00,
2013-05-13 08:27:00,44.4,40.3,30.17,NNW,347,0.0,0.0,85,0.00,,,0.00,meteohub,2013-05-13 12:27:00,
2013-05-13 08:32:00,44.8,40.5,30.17,NNW,347,0.0,0.0,85,0.00,,,0.00,meteohub,2013-05-13 12:32:00,
2013-05-13 08:37:00,45.1,40.6,30.17,NNW,347,0.0,0.0,84,0.00,,,0.00,meteohub,2013-05-13 12:37:00,
2013-05-13 08:42:00,45.7,41.2,30.17,NNW,347,0.0,0.0,84,0.00,,,0.00,meteohub,2013-05-13 12:42:00,
2013-05-13 08:47:00,46.2,40.6,30.18,NNW,347,0.0,0.0,81,0.00,,,0.00,meteohub,2013-05-13 12:47:00,
2013-05-13 08:52:00,46.8,40.6,30.18,NNW,347,0.0,0.0,79,0.00,,,0.00,meteohub,2013-05-13 12:52:00,
2013-05-13 08:57:00,47.5,40.3,30.18,NNW,347,0.0,0.0,76,0.00,,,0.00,meteohub,2013-05-13 12:57:00,
2013-05-13 09:02:00,48.0,39.7,30.18,NNW,347,0.0,0.0,73,0.00,,,0.00,meteohub,2013-05-13 13:02:00,
2013-05-13 09:07:00,48.7,40.1,30.18,NNW,347,0.0,0.0,72,0.00,,,0.00,meteohub,2013-05-13 13:07:00,
2013-05-13 09:12:00,49.5,40.8,30.18,NNW,347,0.0,0.0,72,0.00,,,0.00,meteohub,2013-05-13 13:12:00,
2013-05-13 09:17:00,50.0,39.9,30.18,NNW,341,0.0,1.0,68,0.00,,,0.00,meteohub,2013-05-13 13:17:00,
2013-05-13 09:22:00,50.5,38.8,30.18,WSW,248,0.0,1.0,64,0.00,,,0.00,meteohub,2013-05-13 13:22:00,
2013-05-13 09:27:00,51.3,38.3,30.18,WSW,245,1.0,1.0,61,0.00,,,0.00,meteohub,2013-05-13 13:27:00,
2013-05-13 09:32:00,51.6,36.9,30.18,NW,315,0.0,1.0,57,0.00,,,0.00,meteohub,2013-05-13 13:32:00,
2013-05-13 09:37:00,52.2,35.6,30.18,NNE,27,0.0,1.0,53,0.00,,,0.00,meteohub,2013-05-13 13:37:00,
2013-05-13 09:42:00,52.7,37.0,30.18,NNE,15,0.0,1.0,55,0.00,,,0.00,meteohub,2013-05-13 13:42:00,
2013-05-13 09:47:00,53.2,37.9,30.18,NW,320,0.0,1.0,56,0.00,,,0.00,meteohub,2013-05-13 13:47:00,
2013-05-13 09:52:00,53.4,35.2,30.18,NNW,332,1.0,2.0,50,0.00,,,0.00,meteohub,2013-05-13 13:52:00,
2013-05-13 09:57:00,53.8,37.0,30.19,NNW,332,0.0,2.0,53,0.00,,,0.00,meteohub,2013-05-13 13:57:00,
2013-05-13 10:02:00,54.7,36.3,30.19,NW,318,0.0,2.0,50,0.00,,,0.00,meteohub,2013-05-13 14:02:00,
2013-05-13 10:07:00,55.6,36.7,30.19,NNW,332,1.0,2.0,49,0.00,,,0.00,meteohub,2013-05-13 14:07:00,
2013-05-13 10:12:00,55.9,36.5,30.19,SW,229,0.0,3.0,48,0.00,,,0.00,meteohub,2013-05-13 14:12:00,
2013-05-13 10:17:00,56.7,36.1,30.19,North,352,0.0,3.0,46,0.00,,,0.00,meteohub,2013-05-13 14:17:00,
2013-05-13 10:22:00,57.7,36.5,30.19,SW,230,1.0,3.0,45,0.00,,,0.00,meteohub,2013-05-13 14:22:00,
2013-05-13 10:27:00,58.3,36.5,30.19,NNW,334,3.0,3.0,44,0.00,,,0.00,meteohub,2013-05-13 14:27:00,
2013-05-13 10:32:00,58.3,35.2,30.19,NNW,347,1.0,3.0,42,0.00,,,0.00,meteohub,2013-05-13 14:32:00,
2013-05-13 10:37:00,58.3,36.0,30.19,South,177,1.0,4.0,43,0.00,,,0.00,meteohub,2013-05-13 14:37:00,
2013-05-13 10:42:00,58.5,35.4,30.19,WNW,287,0.0,4.0,42,0.00,,,0.00,meteohub,2013-05-13 14:42:00,
2013-05-13 10:47:00,59.2,34.9,30.19,West,274,0.0,4.0,40,0.00,,,0.00,meteohub,2013-05-13 14:47:00,
2013-05-13 10:52:00,59.5,35.2,30.19,SSE,165,0.0,3.0,40,0.00,,,0.00,meteohub,2013-05-13 14:52:00,
2013-05-13 10:57:00,60.1,36.3,30.19,SW,236,0.0,3.0,41,0.00,,,0.00,meteohub,2013-05-13 14:57:00,
2013-05-13 11:02:00,60.3,35.2,30.19,West,267,0.0,3.0,39,0.00,,,0.00,meteohub,2013-05-13 15:02:00,
2013-05-13 11:07:00,60.3,35.2,30.19,SSW,212,1.0,3.0,39,0.00,,,0.00,meteohub,2013-05-13 15:07:00,
2013-05-13 11:12:00,60.6,36.1,30.19,WSW,253,0.0,3.0,40,0.00,,,0.00,meteohub,2013-05-13 15:12:00,
2013-05-13 11:17:00,60.8,35.1,30.19,South,186,1.0,4.0,38,0.00,,,0.00,meteohub,2013-05-13 15:17:00,
2013-05-13 11:22:00,61.2,36.0,30.19,South,171,2.0,4.0,39,0.00,,,0.00,meteohub,2013-05-13 15:22:00,
2013-05-13 11:27:00,61.5,35.6,30.19,SSE,162,2.0,4.0,38,0.00,,,0.00,meteohub,2013-05-13 15:27:00,
2013-05-13 11:32:00,61.5,35.6,30.19,SSW,212,1.0,4.0,38,0.00,,,0.00,meteohub,2013-05-13 15:32:00,
2013-05-13 11:37:00,61.5,34.3,30.19,South,180,1.0,4.0,36,0.00,,,0.00,meteohub,2013-05-13 15:37:00,
2013-05-13 11:42:00,61.9,33.3,30.19,SW,224,0.0,3.0,34,0.00,,,0.00,meteohub,2013-05-13 15:42:00,
2013-05-13 11:47:00,62.1,34.2,30.19,SSW,200,1.0,3.0,35,0.00,,,0.00,meteohub,2013-05-13 15:47:00,
2013-05-13 11:52:00,62.8,34.7,30.18,WSW,242,1.0,3.0,35,0.00,,,0.00,meteohub,2013-05-13 15:52:00,
2013-05-13 11:57:00,63.1,32.7,30.18,WSW,253,0.0,3.0,32,0.00,,,0.00,meteohub,2013-05-13 15:57:00,
2013-05-13 12:02:00,63.5,32.4,30.18,SE,145,2.0,3.0,31,0.00,,,0.00,meteohub,2013-05-13 16:02:00,
2013-05-13 12:07:00,63.9,32.7,30.18,NNW,330,1.0,3.0,31,0.00,,,0.00,meteohub,2013-05-13 16:07:00,
2013-05-13 12:12:00,63.9,34.2,30.18,NW,326,3.0,4.0,33,0.00,,,0.00,meteohub,2013-05-13 16:12:00,
2013-05-13 12:17:00,63.7,34.0,30.18,NNW,337,3.0,4.0,33,0.00,,,0.00,meteohub,2013-05-13 16:17:00,
2013-05-13 12:22:00,63.9,34.9,30.18,NW,325,2.0,4.0,34,0.00,,,0.00,meteohub,2013-05-13 16:22:00,
2013-05-13 12:27:00,64.0,34.3,30.18,WSW,238,0.0,3.0,33,0.00,,,0.00,meteohub,2013-05-13 16:27:00,
2013-05-13 12:32:00,64.8,33.4,30.18,North,349,0.0,3.0,31,0.00,,,0.00,meteohub,2013-05-13 16:32:00,
2013-05-13 12:37:00,65.1,35.2,30.17,NNW,330,2.0,3.0,33,0.00,,,0.00,meteohub,2013-05-13 16:37:00,
2013-05-13 12:42:00,65.1,32.9,30.17,SW,221,2.0,5.0,30,0.00,,,0.00,meteohub,2013-05-13 16:42:00,
2013-05-13 12:47:00,64.9,34.3,30.17,South,174,1.0,5.0,32,0.00,,,0.00,meteohub,2013-05-13 16:47:00,
2013-05-13 12:52:00,65.1,32.9,30.17,SSE,155,1.0,5.0,30,0.00,,,0.00,meteohub,2013-05-13 16:52:00,
2013-05-13 12:57:00,65.5,34.9,30.17,West,259,1.0,5.0,32,0.00,,,0.00,meteohub,2013-05-13 16:57:00,
2013-05-13 13:02:00,65.8,34.3,30.17,WNW,295,0.0,4.0,31,0.00,,,0.00,meteohub,2013-05-13 17:02:00,
2013-05-13 13:07:00,66.6,35.8,30.16,WSW,255,1.0,3.0,32,0.00,,,0.00,meteohub,2013-05-13 17:07:00,
2013-05-13 13:12:00,66.6,35.1,30.16,SE,145,0.0,3.0,31,0.00,,,0.00,meteohub,2013-05-13 17:12:00,
2013-05-13 13:17:00,66.6,34.2,30.15,NNW,330,0.0,4.0,30,0.00,,,0.00,meteohub,2013-05-13 17:17:00,
2013-05-13 13:22:00,66.4,33.1,30.16,NNW,337,1.0,4.0,29,0.00,,,0.00,meteohub,2013-05-13 17:22:00,
2013-05-13 13:27:00,66.7,35.1,30.15,North,352,0.0,5.0,31,0.00,,,0.00,meteohub,2013-05-13 17:27:00,
2013-05-13 13:32:00,67.5,35.8,30.15,SSE,150,3.0,5.0,31,0.00,,,0.00,meteohub,2013-05-13 17:32:00,
2013-05-13 13:37:00,67.5,33.3,30.15,West,260,1.0,5.0,28,0.00,,,0.00,meteohub,2013-05-13 17:37:00,
2013-05-13 13:42:00,67.3,35.6,30.15,South,181,3.0,3.0,31,0.00,,,0.00,meteohub,2013-05-13 17:42:00,
2013-05-13 13:47:00,67.3,34.0,30.15,SSW,212,1.0,4.0,29,0.00,,,0.00,meteohub,2013-05-13 17:47:00,
2013-05-13 13:52:00,67.3,30.2,30.16,South,187,1.0,4.0,25,0.00,,,0.00,meteohub,2013-05-13 17:52:00,
2013-05-13 13:57:00,67.3,30.2,30.15,SW,229,1.0,6.0,25,0.00,,,0.00,meteohub,2013-05-13 17:57:00,
2013-05-13 14:02:00,67.5,34.2,30.15,WNW,301,2.0,6.0,29,0.00,,,0.00,meteohub,2013-05-13 18:02:00,
2013-05-13 14:07:00,67.6,31.5,30.15,NNW,330,2.0,5.0,26,0.00,,,0.00,meteohub,2013-05-13 18:07:00,
2013-05-13 14:12:00,67.6,34.2,30.14,WSW,250,1.0,4.0,29,0.00,,,0.00,meteohub,2013-05-13 18:12:00,
2013-05-13 14:17:00,67.6,34.2,30.14,SSW,199,2.0,5.0,29,0.00,,,0.00,meteohub,2013-05-13 18:17:00,
2013-05-13 14:22:00,67.8,33.4,30.14,WSW,252,1.0,5.0,28,0.00,,,0.00,meteohub,2013-05-13 18:22:00,
2013-05-13 14:27:00,67.8,34.3,30.14,South,181,0.0,4.0,29,0.00,,,0.00,meteohub,2013-05-13 18:27:00,
2013-05-13 14:32:00,68.4,34.9,30.13,NNW,334,1.0,4.0,29,0.00,,,0.00,meteohub,2013-05-13 18:32:00,
2013-05-13 14:37:00,68.7,36.9,30.13,South,184,2.0,3.0,31,0.00,,,0.00,meteohub,2013-05-13 18:37:00,
2013-05-13 14:42:00,68.4,33.1,30.12,NW,318,3.0,7.0,27,0.00,,,0.00,meteohub,2013-05-13 18:42:00,
2013-05-13 14:47:00,68.2,34.7,30.12,SW,217,1.0,8.0,29,0.00,,,0.00,meteohub,2013-05-13 18:47:00,
2013-05-13 14:52:00,68.2,32.9,30.13,NW,319,2.0,8.0,27,0.00,,,0.00,meteohub,2013-05-13 18:52:00,
2013-05-13 14:57:00,67.8,34.3,30.12,SW,236,2.0,8.0,29,0.00,,,0.00,meteohub,2013-05-13 18:57:00,
2013-05-13 15:02:00,67.8,33.4,30.12,NW,304,2.0,6.0,28,0.00,,,0.00,meteohub,2013-05-13 19:02:00,
2013-05-13 15:07:00,67.8,33.4,30.12,NNW,335,5.0,6.0,28,0.00,,,0.00,meteohub,2013-05-13 19:07:00,
2013-05-13 15:12:00,67.6,33.4,30.12,SW,235,0.0,9.0,28,0.00,,,0.00,meteohub,2013-05-13 19:12:00,
2013-05-13 15:17:00,67.6,33.4,30.11,South,169,2.0,9.0,28,0.00,,,0.00,meteohub,2013-05-13 19:17:00,
2013-05-13 15:22:00,68.4,35.8,30.11,West,276,1.0,9.0,30,0.00,,,0.00,meteohub,2013-05-13 19:22:00,
2013-05-13 15:27:00,68.7,35.2,30.11,WSW,252,1.0,5.0,29,0.00,,,0.00,meteohub,2013-05-13 19:27:00,
2013-05-13 15:32:00,69.1,32.7,30.11,NW,311,1.0,5.0,26,0.00,,,0.00,meteohub,2013-05-13 19:32:00,
2013-05-13 15:37:00,69.4,35.8,30.11,South,186,1.0,5.0,29,0.00,,,0.00,meteohub,2013-05-13 19:37:00,
2013-05-13 15:42:00,69.4,34.0,30.10,SSW,196,2.0,5.0,27,0.00,,,0.00,meteohub,2013-05-13 19:42:00,
2013-05-13 15:47:00,69.3,34.7,30.10,NW,316,1.0,5.0,28,0.00,,,0.00,meteohub,2013-05-13 19:47:00,
2013-05-13 15:52:00,69.4,35.8,30.10,NNW,337,0.0,3.0,29,0.00,,,0.00,meteohub,2013-05-13 19:52:00,
2013-05-13 15:57:00,69.3,34.7,30.09,NW,318,1.0,6.0,28,0.00,,,0.00,meteohub,2013-05-13 19:57:00,
2013-05-13 16:02:00,68.5,34.2,30.10,NW,321,1.0,6.0,28,0.00,,,0.00,meteohub,2013-05-13 20:02:00,
2013-05-13 16:07:00,68.4,35.8,30.09,South,179,1.0,6.0,30,0.00,,,0.00,meteohub,2013-05-13 20:07:00,
2013-05-13 16:12:00,68.4,34.9,30.09,WSW,238,1.0,6.0,29,0.00,,,0.00,meteohub,2013-05-13 20:12:00,
2013-05-13 16:17:00,68.4,35.8,30.09,NNW,328,2.0,6.0,30,0.00,,,0.00,meteohub,2013-05-13 20:17:00,
2013-05-13 16:22:00,68.4,37.4,30.09,WNW,284,0.0,7.0,32,0.00,,,0.00,meteohub,2013-05-13 20:22:00,
2013-05-13 16:27:00,68.4,35.8,30.09,NW,321,2.0,7.0,30,0.00,,,0.00,meteohub,2013-05-13 20:27:00,
2013-05-13 16:32:00,67.8,34.3,30.09,North,357,4.0,7.0,29,0.00,,,0.00,meteohub,2013-05-13 20:32:00,
2013-05-13 16:37:00,67.5,35.8,30.09,SW,217,1.0,5.0,31,0.00,,,0.00,meteohub,2013-05-13 20:37:00,
2013-05-13 16:42:00,67.5,36.5,30.09,NW,313,2.0,5.0,32,0.00,,,0.00,meteohub,2013-05-13 20:42:00,
2013-05-13 16:47:00,67.6,36.0,30.09,SW,231,2.0,5.0,31,0.00,,,0.00,meteohub,2013-05-13 20:47:00,
2013-05-13 16:52:00,67.3,35.6,30.09,SW,229,1.0,5.0,31,0.00,,,0.00,meteohub,2013-05-13 20:52:00,
2013-05-13 16:57:00,66.9,34.5,30.08,SW,228,1.0,5.0,30,0.00,,,0.00,meteohub,2013-05-13 20:57:00,
2013-05-13 17:02:00,67.1,37.0,30.09,NNW,335,2.0,5.0,33,0.00,,,0.00,meteohub,2013-05-13 21:02:00,
2013-05-13 17:07:00,66.9,34.5,30.09,SSW,203,3.0,4.0,30,0.00,,,0.00,meteohub,2013-05-13 21:07:00,
2013-05-13 17:12:00,66.6,35.1,30.09,NNW,335,2.0,4.0,31,0.00,,,0.00,meteohub,2013-05-13 21:12:00,
2013-05-13 17:17:00,66.6,34.2,30.08,NW,325,1.0,4.0,30,0.00,,,0.00,meteohub,2013-05-13 21:17:00,
2013-05-13 17:22:00,66.6,35.8,30.09,WNW,297,1.0,6.0,32,0.00,,,0.00,meteohub,2013-05-13 21:22:00,
2013-05-13 17:27:00,66.7,36.0,30.08,SSW,193,2.0,6.0,32,0.00,,,0.00,meteohub,2013-05-13 21:27:00,
2013-05-13 17:32:00,66.7,36.7,30.09,SW,222,2.0,6.0,33,0.00,,,0.00,meteohub,2013-05-13 21:32:00,
2013-05-13 17:37:00,66.4,36.3,30.08,NNW,330,3.0,5.0,33,0.00,,,0.00,meteohub,2013-05-13 21:37:00,
2013-05-13 17:42:00,66.2,35.4,30.08,NNW,330,1.0,7.0,32,0.00,,,0.00,meteohub,2013-05-13 21:42:00,
2013-05-13 17:47:00,66.2,36.3,30.09,SW,215,2.0,7.0,33,0.00,,,0.00,meteohub,2013-05-13 21:47:00,
2013-05-13 17:52:00,66.2,35.4,30.08,South,169,3.0,7.0,32,0.00,,,0.00,meteohub,2013-05-13 21:52:00,
2013-05-13 17:57:00,66.0,36.1,30.09,SW,228,1.0,6.0,33,0.00,,,0.00,meteohub,2013-05-13 21:57:00,
2013-05-13 18:02:00,65.8,36.0,30.09,NNW,337,3.0,6.0,33,0.00,,,0.00,meteohub,2013-05-13 22:02:00,
2013-05-13 18:07:00,65.8,35.2,30.09,NNW,334,1.0,4.0,32,0.00,,,0.00,meteohub,2013-05-13 22:07:00,
2013-05-13 18:12:00,65.8,35.2,30.09,NNW,335,4.0,4.0,32,0.00,,,0.00,meteohub,2013-05-13 22:12:00,
2013-05-13 18:17:00,65.7,35.8,30.09,WNW,302,1.0,8.0,33,0.00,,,0.00,meteohub,2013-05-13 22:17:00,
2013-05-13 18:22:00,65.7,35.1,30.09,SW,225,1.0,8.0,32,0.00,,,0.00,meteohub,2013-05-13 22:22:00,
2013-05-13 18:27:00,65.5,34.9,30.09,NW,315,2.0,8.0,32,0.00,,,0.00,meteohub,2013-05-13 22:27:00,
2013-05-13 18:32:00,65.5,34.9,30.09,NNW,330,2.0,5.0,32,0.00,,,0.00,meteohub,2013-05-13 22:32:00,
2013-05-13 18:37:00,65.3,35.4,30.09,NW,321,2.0,6.0,33,0.00,,,0.00,meteohub,2013-05-13 22:37:00,
2013-05-13 18:42:00,65.1,35.2,30.09,SW,224,1.0,6.0,33,0.00,,,0.00,meteohub,2013-05-13 22:42:00,
2013-05-13 18:47:00,64.9,35.1,30.09,SE,141,2.0,6.0,33,0.00,,,0.00,meteohub,2013-05-13 22:47:00,
2013-05-13 18:52:00,64.9,35.1,30.09,NW,321,2.0,4.0,33,0.00,,,0.00,meteohub,2013-05-13 22:52:00,
2013-05-13 18:57:00,64.8,35.1,30.09,West,260,0.0,4.0,33,0.00,,,0.00,meteohub,2013-05-13 22:57:00,
2013-05-13 19:02:00,64.6,34.9,30.09,SW,218,1.0,5.0,33,0.00,,,0.00,meteohub,2013-05-13 23:02:00,
2013-05-13 19:08:00,64.6,35.6,30.09,SW,228,1.0,5.0,34,0.00,,,0.00,meteohub,2013-05-13 23:08:00,
2013-05-13 19:13:00,64.6,34.9,30.09,SSW,210,1.0,4.0,33,0.00,,,0.00,meteohub,2013-05-13 23:13:00,
2013-05-13 19:18:00,64.2,35.2,30.09,WNW,290,0.0,5.0,34,0.00,,,0.00,meteohub,2013-05-13 23:18:00,
2013-05-13 19:23:00,64.0,35.1,30.09,West,266,0.0,5.0,34,0.00,,,0.00,meteohub,2013-05-13 23:23:00,
2013-05-13 19:28:00,64.0,35.8,30.10,WNW,283,0.0,5.0,35,0.00,,,0.00,meteohub,2013-05-13 23:28:00,
2013-05-13 19:33:00,63.9,34.9,30.10,SW,232,1.0,3.0,34,0.00,,,0.00,meteohub,2013-05-13 23:33:00,
2013-05-13 19:38:00,63.7,36.1,30.10,WSW,245,1.0,3.0,36,0.00,,,0.00,meteohub,2013-05-13 23:38:00,
2013-05-13 19:43:00,63.5,35.4,30.10,WSW,238,0.0,3.0,35,0.00,,,0.00,meteohub,2013-05-13 23:43:00,
2013-05-13 19:48:00,63.3,37.2,30.10,SW,217,1.0,2.0,38,0.00,,,0.00,meteohub,2013-05-13 23:48:00,
2013-05-13 19:53:00,63.1,37.8,30.10,WSW,251,0.0,2.0,39,0.00,,,0.00,meteohub,2013-05-13 23:53:00,
2013-05-13 19:58:00,62.8,37.4,30.10,WSW,238,1.0,1.0,39,0.00,,,0.00,meteohub,2013-05-13 23:58:00,
2013-05-13 20:03:00,62.4,37.8,30.10,WSW,247,0.0,1.0,40,0.00,,,0.00,meteohub,2013-05-14 00:03:00,
2013-05-13 20:08:00,62.2,37.6,30.11,WSW,257,0.0,1.0,40,0.00,,,0.00,meteohub,2013-05-14 00:08:00,
2013-05-13 20:13:00,62.1,37.4,30.11,WSW,248,0.0,1.0,40,0.00,,,0.00,meteohub,2013-05-14 00:13:00,
2013-05-13 20:18:00,61.7,39.0,30.11,WSW,247,0.0,1.0,43,0.00,,,0.00,meteohub,2013-05-14 00:18:00,
2013-05-13 20:23:00,61.3,37.4,30.11,WSW,248,0.0,1.0,41,0.00,,,0.00,meteohub,2013-05-14 00:23:00,
2013-05-13 20:28:00,61.0,37.8,30.12,WSW,248,0.0,1.0,42,0.00,,,0.00,meteohub,2013-05-14 00:28:00,
2013-05-13 20:33:00,60.6,37.9,30.12,WSW,248,0.0,1.0,43,0.00,,,0.00,meteohub,2013-05-14 00:33:00,
2013-05-13 20:38:00,60.3,38.3,30.12,WSW,250,0.0,1.0,44,0.00,,,0.00,meteohub,2013-05-14 00:38:00,
2013-05-13 20:43:00,59.9,37.9,30.12,WSW,250,0.0,1.0,44,0.00,,,0.00,meteohub,2013-05-14 00:43:00,
2013-05-13 20:48:00,59.5,37.6,30.12,WSW,252,0.0,1.0,44,0.00,,,0.00,meteohub,2013-05-14 00:48:00,
2013-05-13 20:53:00,59.4,38.7,30.12,WSW,250,0.0,1.0,46,0.00,,,0.00,meteohub,2013-05-14 00:53:00,
2013-05-13 20:58:00,59.0,38.3,30.12,WSW,250,0.0,0.0,46,0.00,,,0.00,meteohub,2013-05-14 00:58:00,
2013-05-13 21:03:00,58.6,38.5,30.12,WSW,250,0.0,0.0,47,0.00,,,0.00,meteohub,2013-05-14 01:03:00,
2013-05-13 21:08:00,58.3,38.1,30.13,WSW,250,0.0,1.0,47,0.00,,,0.00,meteohub,2013-05-14 01:08:00,
2013-05-13 21:13:00,57.9,37.8,30.13,WSW,250,0.0,1.0,47,0.00,,,0.00,meteohub,2013-05-14 01:13:00,
2013-05-13 21:18:00,57.7,37.6,30.13,WSW,250,0.0,1.0,47,0.00,,,0.00,meteohub,2013-05-14 01:18:00,
2013-05-13 21:23:00,57.6,39.6,30.13,WSW,250,0.0,0.0,51,0.00,,,0.00,meteohub,2013-05-14 01:23:00,
2013-05-13 21:28:00,57.4,40.5,30.13,WSW,250,0.0,0.0,53,0.00,,,0.00,meteohub,2013-05-14 01:28:00,
2013-05-13 21:33:00,57.0,40.1,30.13,WSW,250,0.0,0.0,53,0.00,,,0.00,meteohub,2013-05-14 01:33:00,
2013-05-13 21:38:00,56.8,39.9,30.14,WSW,250,0.0,0.0,53,0.00,,,0.00,meteohub,2013-05-14 01:38:00,
2013-05-13 21:43:00,56.5,39.0,30.14,WSW,250,0.0,0.0,52,0.00,,,0.00,meteohub,2013-05-14 01:43:00,
2013-05-13 21:48:00,56.3,39.9,30.14,WSW,250,0.0,0.0,54,0.00,,,0.00,meteohub,2013-05-14 01:48:00,
2013-05-13 21:53:00,55.9,39.9,30.14,WSW,250,0.0,0.0,55,0.00,,,0.00,meteohub,2013-05-14 01:53:00,
2013-05-13 21:58:00,55.6,40.6,30.14,WSW,250,0.0,0.0,57,0.00,,,0.00,meteohub,2013-05-14 01:58:00,
2013-05-13 22:03:00,55.2,40.6,30.14,WSW,250,0.0,0.0,58,0.00,,,0.00,meteohub,2013-05-14 02:03:00,
2013-05-13 22:08:00,55.0,40.5,30.15,WSW,250,0.0,0.0,58,0.00,,,0.00,meteohub,2013-05-14 02:08:00,
2013-05-13 22:13:00,54.9,41.2,30.15,WSW,250,0.0,0.0,60,0.00,,,0.00,meteohub,2013-05-14 02:13:00,
2013-05-13 22:18:00,54.7,41.5,30.15,WSW,250,0.0,0.0,61,0.00,,,0.00,meteohub,2013-05-14 02:18:00,
2013-05-13 22:23:00,54.3,40.8,30.16,WSW,250,0.0,0.0,60,0.00,,,0.00,meteohub,2013-05-14 02:23:00,
2013-05-13 22:28:00,54.1,40.1,30.16,WSW,250,0.0,0.0,59,0.00,,,0.00,meteohub,2013-05-14 02:28:00,
2013-05-13 22:33:00,54.0,39.6,30.16,WSW,250,0.0,0.0,58,0.00,,,0.00,meteohub,2013-05-14 02:33:00,
2013-05-13 22:38:00,54.0,39.6,30.16,WSW,250,0.0,0.0,58,0.00,,,0.00,meteohub,2013-05-14 02:38:00,
2013-05-13 22:43:00,53.8,41.0,30.16,WSW,250,0.0,0.0,62,0.00,,,0.00,meteohub,2013-05-14 02:43:00,
2013-05-13 22:48:00,53.8,41.0,30.16,WSW,250,0.0,0.0,62,0.00,,,0.00,meteohub,2013-05-14 02:48:00,
2013-05-13 22:53:00,53.4,40.3,30.16,WSW,250,0.0,0.0,61,0.00,,,0.00,meteohub,2013-05-14 02:53:00,
2013-05-13 22:58:00,53.2,40.1,30.16,WSW,250,0.0,0.0,61,0.00,,,0.00,meteohub,2013-05-14 02:58:00,
2013-05-13 23:03:00,53.1,40.5,30.16,WSW,250,0.0,0.0,62,0.00,,,0.00,meteohub,2013-05-14 03:03:00,
2013-05-13 23:08:00,52.9,40.6,30.17,WSW,250,0.0,0.0,63,0.00,,,0.00,meteohub,2013-05-14 03:08:00,
2013-05-13 23:13:00,52.7,39.6,30.17,WSW,250,0.0,0.0,61,0.00,,,0.00,meteohub,2013-05-14 03:13:00,
2013-05-13 23:18:00,52.5,39.9,30.17,WSW,250,0.0,0.0,62,0.00,,,0.00,meteohub,2013-05-14 03:18:00,
2013-05-13 23:23:00,52.3,40.5,30.17,WSW,250,0.0,0.0,64,0.00,,,0.00,meteohub,2013-05-14 03:23:00,
2013-05-13 23:28:00,52.2,40.3,30.17,WSW,250,0.0,0.0,64,0.00,,,0.00,meteohub,2013-05-14 03:28:00,
2013-05-13 23:33:00,52.0,41.0,30.17,WSW,250,0.0,0.0,66,0.00,,,0.00,meteohub,2013-05-14 03:33:00,
2013-05-13 23:38:00,51.8,40.1,30.17,WSW,250,0.0,0.0,64,0.00,,,0.00,meteohub,2013-05-14 03:38:00,
2013-05-13 23:43:00,51.4,39.2,30.17,WSW,250,0.0,0.0,63,0.00,,,0.00,meteohub,2013-05-14 03:43:00,
2013-05-13 23:48:00,51.3,39.6,30.17,WSW,250,0.0,0.0,64,0.00,,,0.00,meteohub,2013-05-14 03:48:00,
2013-05-13 23:53:00,51.1,40.5,30.17,WSW,250,0.0,0.0,67,0.00,,,0.00,meteohub,2013-05-14 03:53:00,
2013-05-13 23:58:00,50.9,40.6,30.17,WSW,250,0.0,0.0,68,0.00,,,0.00,meteohub,2013-05-14 03:58:00,